Location: La Trinit�
(48.1620°N, 3.4512°W)
Time: 15:40:04
(UTC+00:00)

Cosmos 1295 Rocket - Pass Details

Date: 08 May 2021
Orbit: 944 x 994 km, 82.9° (Epoch: 23 June)

Event Time Altitude Azimuth Distance (km) Brightness Sun altitude
Rises 22:34:26 0° 350° (N) 3,715 8.9 -21.1°
Reaches altitude 10° 22:36:58 10° 351° (N) 2,766 7.9 -21.3°
Maximum altitude 22:43:21 88° 80° (E) 1,002 4.5 -21.7°
Enters shadow 22:45:47 41° 171° (S) 1,406 4.8 -21.8°
